Weather History for Glendale Luke AFB, AZ

Change the Weather History Date:

Friday, September 6, 2013

  Actual Average Record
Temperature  
Mean Temperature 96 °F -  
Max Temperature 107 °F 102 °F 112 °F (1945)
Min Temperature 84 °F 70 °F 60 °F (1985)
Cooling Degree Days 30    
Growing Degree Days 46 (Base 50)    
Moisture  
Dew Point 61 °F    
Average Humidity 34    
Maximum Humidity 56    
Minimum Humidity 16    
Precipitation  
Precipitation 0.15 in - - ()
Sea Level Pressure  
Sea Level Pressure 29.78 in    
Wind  
Wind Speed 9 mph (SSW)    
Max Wind Speed 29 mph    
Max Gust Speed 31 mph    
Visibility 8 miles    
Events Rain , Thunderstorm    
Averages and records for this station are not official NWS values.
T = Trace of Precipitation, MM = Missing Value Source: NWS Daily Summary

Daily Weather History Graph

Daily Weather History Graph

Search for Another Location

Airport:

Trip Planner

Search our weather history database for the weather conditions in past years. The results will help you decide how hot, cold, wet, or windy it might be!

Date:

Astronomy

Sep. 06, 2013 Rise Set
Actual Time 6:07 AM MST 6:47 PM MST
Civil Twilight 5:41 AM MST 7:12 PM MST
Nautical Twilight 5:12 AM MST 7:42 PM MST
Astronomical Twilight 4:41 AM MST 8:12 PM MST
Moon 7:16 AM MST (9/6) 7:21 PM MST (9/6)
Length of Visible Light 13h 30m
Length of Day
12h 40m
New Moon, 2% of the Moon is Illuminated
Sep 6
New Moon
Sep 12
First Quarter
Sep 19
Full
Sep 26
Last Quarter
Oct 4
New

Hourly Weather History & Observations

Time (MST) Temp. Heat Index Dew Point Humidity Pressure Visibility Wind Dir Wind Speed Gust Speed Precip Events Conditions
12:58 AM 96.1 °F 95.2 °F 57.9 °F 28% 29.78 in 10.0 mi East 1.2 mph - N/A   Scattered Clouds
1:58 AM 93.2 °F 92.6 °F 58.8 °F 32% 29.78 in 10.0 mi ENE 4.6 mph - N/A   Mostly Cloudy
2:58 AM 92.8 °F 92.1 °F 59.4 °F 32% 29.78 in 10.0 mi ENE 3.5 mph - N/A   Clear
3:58 AM 91.4 °F 90.1 °F 58.1 °F 32% 29.79 in 10.0 mi ENE 2.3 mph - N/A   Scattered Clouds
4:58 AM 87.6 °F 88.2 °F 62.8 °F 43% 29.79 in 10.0 mi WNW 4.6 mph - N/A   Clear
5:58 AM 84.7 °F 85.6 °F 62.8 °F 48% 29.81 in 10.0 mi North 5.8 mph - N/A   Mostly Cloudy
6:58 AM 88.3 °F 87.6 °F 59.2 °F 37% 29.81 in 10.0 mi NNE 5.8 mph - N/A   Partly Cloudy
7:58 AM 91.4 °F 90.7 °F 59.0 °F 34% 29.83 in 10.0 mi NNE 2.3 mph - N/A   Partly Cloudy
8:58 AM 95.2 °F 94.7 °F 59.4 °F 30% 29.84 in 10.0 mi Variable 4.6 mph - N/A   Partly Cloudy
9:58 AM 97.9 °F 97.4 °F 58.5 °F 27% 29.84 in 10.0 mi Variable 3.5 mph - N/A   Partly Cloudy
10:58 AM 101.5 °F 100.8 °F 56.7 °F 23% 29.83 in 10.0 mi SE 9.2 mph - N/A   Partly Cloudy
11:58 AM 103.3 °F 102.4 °F 55.8 °F 21% 29.81 in 10.0 mi ESE 8.1 mph - N/A   Clear
12:58 PM 105.6 °F 104.0 °F 54.3 °F 18% 29.78 in 10.0 mi Variable 1.2 mph - N/A   Clear
1:58 PM 106.9 °F - 52.9 °F 17% 29.74 in 10.0 mi ENE 9.2 mph - N/A   Clear
2:58 PM 107.6 °F - 52.7 °F 16% 29.70 in 10.0 mi Variable 5.8 mph - N/A   Clear
3:58 PM 106.9 °F - 50.9 °F 16% 29.69 in 10.0 mi SW 5.8 mph - N/A   Clear
4:11 PM 105.8 °F 104.3 °F 53.6 °F 18% 29.74 in 0.5 mi SSW 24.2 mph 28.8 mph N/A   Widespread Dust
4:12 PM 105.8 °F 104.9 °F 55.4 °F 19% 29.74 in 7.0 mi SSW 27.6 mph 31.1 mph N/A   Partly Cloudy
4:14 PM 105.8 °F 106.8 °F 59.0 °F 22% 29.74 in 1.0 mi SW 28.8 mph - N/A   Widespread Dust
4:22 PM 100.4 °F 101.3 °F 60.8 °F 27% 29.74 in 1.2 mi WSW 23.0 mph 31.1 mph N/A   Haze
4:24 PM 100.4 °F 101.3 °F 60.8 °F 27% 29.74 in 3.0 mi WSW 19.6 mph - N/A   Widespread Dust
4:32 PM 100.4 °F 101.3 °F 60.8 °F 27% 29.75 in 10.0 mi SW 18.4 mph - N/A   Clear
4:58 PM 99.1 °F 99.8 °F 60.3 °F 28% 29.72 in 10.0 mi SSW 18.4 mph - N/A   Clear
5:00 PM 98.6 °F 99.4 °F 60.8 °F 29% 29.76 in 10.0 mi South 19.6 mph 26.5 mph N/A   Clear
5:58 PM 98.1 °F 97.7 °F 58.3 °F 27% 29.71 in 10.0 mi SSW 16.1 mph - N/A   Clear
6:19 PM 96.8 °F 96.2 °F 59.0 °F 28% 29.79 in 10.0 mi South 12.7 mph 23.0 mph N/A Thunderstorm Mostly Cloudy
6:25 PM 96.8 °F 96.2 °F 59.0 °F 28% 29.81 in 10.0 mi ESE 17.3 mph - N/A Thunderstorm Mostly Cloudy
6:31 PM 95.0 °F 101.3 °F 69.8 °F 44% 29.81 in 2.5 mi SSE 12.7 mph 27.6 mph N/A Rain , Thunderstorm Light Rain
6:35 PM 89.6 °F 93.4 °F 68.0 °F 49% 29.80 in 1.5 mi SSW 13.8 mph 27.6 mph N/A Rain , Thunderstorm Heavy Rain
6:45 PM 86.0 °F 89.4 °F 68.0 °F 55% 29.79 in 6.0 mi WSW 15.0 mph - N/A Rain , Thunderstorm Light Rain
6:55 PM 87.8 °F 92.6 °F 69.8 °F 55% 29.78 in 10.0 mi WSW 13.8 mph - N/A Thunderstorm Scattered Clouds
6:58 PM 87.8 °F 92.6 °F 69.8 °F 55% 29.74 in 10.0 mi WSW 11.5 mph - 0.15 in Thunderstorm Scattered Clouds
7:58 PM 85.5 °F 88.8 °F 68.4 °F 56% 29.77 in 10.0 mi NNW 16.1 mph - 0.00 in   Scattered Clouds
8:58 PM 84.6 °F 87.4 °F 67.1 °F 56% 29.80 in 10.0 mi North 10.4 mph - N/A   Mostly Cloudy
9:58 PM 85.3 °F 88.2 °F 67.6 °F 55% 29.83 in 10.0 mi WSW 4.6 mph - N/A   Mostly Cloudy
10:58 PM 87.8 °F 89.1 °F 64.2 °F 45% 29.83 in 10.0 mi SW 12.7 mph - N/A   Mostly Cloudy
11:58 PM 85.5 °F 87.4 °F 65.3 °F 51% 29.86 in 10.0 mi WSW 8.1 mph - N/A   Scattered Clouds